Find Kosmos-2285

NORAD ID: 23189 Int'l Des: 1994-045 Owner: TSSKB Country: RU operational
LEOCIRCULAR

Live Position

Loading 3D Globe...

About Kosmos-2285

Description loading...

Upcoming Passes

Passes for default location (London). Set your location on the main map for personalized predictions.

Altitude History

Loading altitude history...

Two-Line Element Set

1 23189U 94045A 26105.88308830 -.00000014 00000-0 90140-5 0 9992
2 23189 74.0295 216.3959 0025853 229.5658 269.6493 13.72520356587842
Epoch: Apr 15, 2026 • Age: 8 hours

Current Status

Altitude 1004.7 km
Velocity 7.35 km/s
Sub-Earth Point -31.00°S, 74.96°W
Launch Date Aug 2, 1994
Age 31.7 years
Type other

Technical Details

Classification Payload
Mass 900.00 kg
Dry Mass 900.00 kg
Total Mass 900.00 kg
Length 5.00 m
Diameter 2.10 m
Span 17.00 m
Shape Cyl + Ant
Manufacturer TSSKB
Bus Type Obzor
Phase Status In Orbit
Owner/State TSSKB/RU

Most Searched